Regional Weather Roundup
Issued by NWS

Home | Current Version | Previous Version | Text Only | Print | Product List | Glossary On
Versions: 1 2 3 4 5 6 7 8 9 10 11 12 13 14 15 16 17 18 19 20 21 22 23 24 25 26 27 28 29 30 31 32 33 34 35 36 37 38 39 40 41 42 43 44 45 46 47 48 49 50
000
ASUS43 KTOP 231959
RWRKS

WEATHER ROUNDUP FOR KANSAS
NATIONAL WEATHER SERVICE GOODLAND KS
300 PM CDT THU OCT 23 2014

NOTE:  "FAIR" INDICATES FEW OR NO CLOUDS BELOW 12,000 FEET WITH NO
SIGNIFICANT WEATHER AND/OR OBSTRUCTIONS TO VISIBILITY.

KSZ001>006-013>018-027>032-041>047-232100-
NORTHWEST KANSAS

CITY           SKY/WX    TMP DP  RH WIND       PRES   REMARKS
GOODLAND       SUNNY     74  47  38 S13       30.07F
HAYS           MOSUNNY   72  57  60 S8        30.05F
HILL CITY      PTSUNNY   71  56  58 S5        30.05F
RUSSELL        MOSUNNY   73  56  54 S6        30.03F
$$

KSZ061>065-074>080-084>089-232100-
SOUTHWEST KANSAS

CITY           SKY/WX    TMP DP  RH WIND       PRES   REMARKS
ELKHART          N/A     76  53  44 E5          N/A
GARDEN CITY    SUNNY     71  57  61 MISG      30.07F
GREAT BEND     PTSUNNY   73  59  60 S6        30.05F
LIBERAL        SUNNY     72  61  68 NE3       30.08F
$$

KSZ066>073-081>083-090>101-232100-
SOUTHEAST KANSAS

CITY           SKY/WX    TMP DP  RH WIND       PRES   REMARKS
COFFEYVILLE    LGT RAIN  64  58  80 S12       30.09F
HUTCHINSON     PTSUNNY   74  59  59 SE7       30.04F
NEWTON         MOSUNNY   70  57  64 SW3       30.08F
PARSONS        CLOUDY    64  58  80 S12       30.10F
WICHITA JABRA  MOSUNNY   71  60  68 VRB7      30.05F
WICHITA MCCONL MOSUNNY   72  63  73 S7        30.06F
$$

KSZ007>012-019>026-033>040-048>060-102>105-232100-
NORTHEAST KANSAS

CITY           SKY/WX    TMP DP  RH WIND       PRES   REMARKS
CONCORDIA      SUNNY     72  58  61 S3        30.04F
LAWRENCE       CLOUDY    64  60  87 S9        30.06F FOG
MANHATTAN      SUNNY     75  56  51 S5        30.03F
OLATHE IND     CLOUDY    64  60  87 SW12      30.07F
OLATHE EXE     CLOUDY    64  60  87 SW8       30.06F
SALINA         MOSUNNY   76  58  53 E3        30.04F
TOPEKA BILLARD MOSUNNY   70  62  76 SE3       30.05F
TOPEKA FORBES  CLOUDY    68  63  84 S8        30.05F
$$



USA.gov is the U.S. government's official web portal to all federal, state and local government web resources and services.